• In Lithuania
  • List of Countries
  • For 7 days
  • Water Temperature
  • Satellite Maps
  • Weather Map
  • Weather Widgets
  • user-avatar
    Login

    Hourly Weather Wagadugu

    Today, 22 October, Monday

    Time Temperature Precipitation Wind Pressure Humidity
    00:00 +30°C° 0 mm 1 mps 731 mmHg 28%
    01:00 +29°C° 0 mm 1 mps 731 mmHg 29%
    02:00 +29°C° 0 mm 1 mps 731 mmHg 31%
    03:00 +28°C° 0 mm 1 mps 730 mmHg 32%
    04:00 +28°C° 0 mm 1 mps 731 mmHg 34%
    05:00 +28°C° 0 mm 1 mps 731 mmHg 35%
    06:00 +28°C° 0 mm 1 mps 731 mmHg 36%
    07:00 +30°C° 0 mm 2 mps 732 mmHg 34%
    08:00 +32°C° 0 mm 2 mps 732 mmHg 31%
    09:00 +36°C° 0 mm 3 mps 733 mmHg 29%
    10:00 +38°C° 0 mm 2 mps 732 mmHg 25%
    11:00 +39°C° 0 mm 1 mps 732 mmHg 21%
    12:00 +41°C° 0 mm 1 mps 731 mmHg 17%
    13:00 +41°C° 0 mm 2 mps 731 mmHg 16%
    14:00 +43°C° 0 mm 3 mps 730 mmHg 14%
    15:00 +44°C° 0 mm 4 mps 729 mmHg 12%
    16:00 +42°C° 0 mm 3 mps 729 mmHg 14%
    17:00 +39°C° 0 mm 3 mps 730 mmHg 16%
    18:00 +37°C° 0 mm 2 mps 730 mmHg 17%
    19:00 +36°C° 0 mm 2 mps 730 mmHg 20%
    20:00 +34°C° 0 mm 2 mps 731 mmHg 22%
    21:00 +32°C° 0 mm 2 mps 731 mmHg 24%
    22:00 +31°C° 0 mm 1 mps 731 mmHg 25%
    23:00 +31°C° 0 mm 1 mps 731 mmHg 27%

    Tomorrow, 23 October, Tuesday

    Time Temperature Precipitation Wind Pressure Humidity
    00:00 +28°C° 0 mm 0 mps 731 mmHg 28%
    01:00 +27°C° 0 mm 0 mps 731 mmHg 28%
    02:00 +29°C° 0 mm 1 mps 731 mmHg 29%
    03:00 +28°C° 0 mm 1 mps 731 mmHg 29%
    04:00 +28°C° 0 mm 1 mps 731 mmHg 30%
    05:00 +28°C° 0 mm 1 mps 731 mmHg 30%
    06:00 +28°C° 0 mm 2 mps 731 mmHg 30%
    07:00 +30°C° 0 mm 2 mps 732 mmHg 28%
    08:00 +34°C° 0 mm 2 mps 733 mmHg 25%
    09:00 +36°C° 0 mm 2 mps 733 mmHg 23%
    10:00 +38°C° 0 mm 2 mps 733 mmHg 20%
    11:00 +40°C° 0 mm 1 mps 732 mmHg 17%
    12:00 +42°C° 0 mm 1 mps 732 mmHg 15%
    13:00 +42°C° 0 mm 2 mps 731 mmHg 13%
    14:00 +44°C° 0 mm 3 mps 730 mmHg 11%
    15:00 +44°C° 0 mm 4 mps 730 mmHg 9%
    16:00 +42°C° 0 mm 3 mps 730 mmHg 11%
    17:00 +39°C° 0 mm 3 mps 730 mmHg 12%
    18:00 +37°C° 0 mm 2 mps 730 mmHg 14%
    19:00 +36°C° 0 mm 2 mps 730 mmHg 16%
    20:00 +35°C° 0 mm 2 mps 731 mmHg 18%
    21:00 +34°C° 0 mm 2 mps 731 mmHg 20%
    22:00 +32°C° 0 mm 1 mps 731 mmHg 22%
    23:00 +31°C° 0 mm 1 mps 731 mmHg 24%

    Day after tomorrow, 24 October, Wednesday

    Time Temperature Precipitation Wind Pressure Humidity
    00:00 +30°C° 0 mm 1 mps 731 mmHg 26%
    01:00 +30°C° 0 mm 1 mps 731 mmHg 26%
    02:00 +29°C° 0 mm 1 mps 730 mmHg 26%
    03:00 +29°C° 0 mm 1 mps 730 mmHg 27%
    04:00 +29°C° 0 mm 2 mps 730 mmHg 27%
    05:00 +29°C° 0 mm 2 mps 730 mmHg 28%
    06:00 +29°C° 0 mm 3 mps 730 mmHg 28%
    07:00 +31°C° 0 mm 3 mps 731 mmHg 28%
    08:00 +34°C° 0 mm 3 mps 732 mmHg 27%
    09:00 +36°C° 0 mm 4 mps 732 mmHg 27%
    10:00 +38°C° 0 mm 3 mps 732 mmHg 24%
    11:00 +39°C° 0 mm 3 mps 731 mmHg 22%
    12:00 +41°C° 0 mm 2 mps 731 mmHg 19%
    13:00 +42°C° 0 mm 2 mps 730 mmHg 17%
    14:00 +42°C° 0 mm 2 mps 729 mmHg 15%
    15:00 +44°C° 0 mm 3 mps 729 mmHg 12%
    16:00 +42°C° 0 mm 3 mps 729 mmHg 14%
    17:00 +39°C° 0 mm 2 mps 729 mmHg 16%
    18:00 +37°C° 0 mm 2 mps 728 mmHg 18%
    19:00 +37°C° 0 mm 2 mps 729 mmHg 19%
    20:00 +36°C° 0 mm 3 mps 730 mmHg 21%
    21:00 +35°C° 0 mm 3 mps 730 mmHg 23%
    22:00 +34°C° 0 mm 3 mps 730 mmHg 24%
    23:00 +34°C° 0 mm 3 mps 730 mmHg 26%

    25 October, Thursday

    Time Temperature Precipitation Wind Pressure Humidity
    00:00 +33°C° 0 mm 3 mps 730 mmHg 28%
    01:00 +31°C° 0 mm 3 mps 730 mmHg 33%
    02:00 +31°C° 0 mm 3 mps 730 mmHg 38%
    03:00 +30°C° 0 mm 3 mps 730 mmHg 43%
    04:00 +29°C° 0 mm 4 mps 730 mmHg 51%
    05:00 +29°C° 0 mm 4 mps 730 mmHg 59%
    06:00 +29°C° 0 mm 4 mps 731 mmHg 68%
    07:00 +30°C° 0 mm 5 mps 731 mmHg 64%
    08:00 +32°C° 0 mm 5 mps 732 mmHg 59%
    09:00 +34°C° 0 mm 6 mps 733 mmHg 55%
    10:00 +36°C° 0 mm 5 mps 732 mmHg 48%
    11:00 +39°C° 0 mm 5 mps 732 mmHg 41%
    12:00 +40°C° 0 mm 4 mps 731 mmHg 34%
    13:00 +41°C° 0 mm 4 mps 730 mmHg 31%
    14:00 +42°C° 0 mm 3 mps 730 mmHg 27%
    15:00 +41°C° 0 mm 2 mps 729 mmHg 24%
    16:00 +40°C° 0 mm 2 mps 729 mmHg 25%
    17:00 +39°C° 0 mm 2 mps 729 mmHg 27%
    18:00 +36°C° 0 mm 1 mps 729 mmHg 28%
    19:00 +37°C° 0 mm 2 mps 730 mmHg 29%
    20:00 +36°C° 0 mm 2 mps 731 mmHg 31%
    21:00 +36°C° 0 mm 2 mps 731 mmHg 32%
    22:00 +35°C° 0 mm 2 mps 731 mmHg 33%
    23:00 +35°C° 0 mm 2 mps 731 mmHg 34%

    26 October, Friday

    Time Temperature Precipitation Wind Pressure Humidity
    00:00 +34°C° 0 mm 3 mps 731 mmHg 36%
    01:00 +34°C° 0 mm 2 mps 730 mmHg 37%
    02:00 +32°C° 0 mm 2 mps 730 mmHg 39%
    03:00 +32°C° 0 mm 2 mps 730 mmHg 41%
    04:00 +32°C° 0 mm 2 mps 730 mmHg 43%
    05:00 +31°C° 0 mm 2 mps 730 mmHg 45%
    06:00 +31°C° 0 mm 3 mps 731 mmHg 48%
    07:00 +33°C° 0 mm 4 mps 731 mmHg 47%
    08:00 +34°C° 0 mm 4 mps 732 mmHg 47%
    09:00 +35°C° 0 mm 5 mps 732 mmHg 47%
    10:00 +36°C° 0 mm 5 mps 732 mmHg 43%
    11:00 +38°C° 0 mm 4 mps 731 mmHg 40%
    12:00 +40°C° 0 mm 4 mps 731 mmHg 36%
    13:00 +39°C° 0 mm 3 mps 730 mmHg 34%
    14:00 +39°C° 0 mm 2 mps 729 mmHg 32%
    15:00 +40°C° 0 mm 2 mps 729 mmHg 31%
    16:00 +39°C° 0 mm 2 mps 729 mmHg 32%
    17:00 +37°C° 0 mm 2 mps 730 mmHg 34%
    18:00 +36°C° 0 mm 2 mps 730 mmHg 36%
    19:00 +35°C° 0 mm 1 mps 730 mmHg 37%
    20:00 +34°C° 0 mm 1 mps 731 mmHg 39%
    21:00 +33°C° 0 mm 1 mps 731 mmHg 40%
    22:00 +33°C° 0 mm 1 mps 731 mmHg 41%
    23:00 +32°C° 0 mm 1 mps 731 mmHg 42%

    27 October, Saturday

    Time Temperature Precipitation Wind Pressure Humidity
    00:00 +32°C° 0 mm 1 mps 730 mmHg 43%
    01:00 +32°C° 0.1 mm 1 mps 730 mmHg 43%
    02:00 +32°C° 0.1 mm 2 mps 730 mmHg 43%
    03:00 +33°C° 0.1 mm 3 mps 730 mmHg 43%
    04:00 +31°C° 0 mm 3 mps 731 mmHg 47%
    05:00 +30°C° 0 mm 4 mps 731 mmHg 52%
    06:00 +30°C° 0 mm 4 mps 731 mmHg 56%
    07:00 +32°C° 0.1 mm 4 mps 732 mmHg 54%
    08:00 +33°C° 0.1 mm 5 mps 732 mmHg 51%
    09:00 +34°C° 0.1 mm 5 mps 733 mmHg 48%
    10:00 +36°C° 0 mm 5 mps 732 mmHg 44%
    11:00 +37°C° 0 mm 5 mps 732 mmHg 40%
    12:00 +39°C° 0 mm 5 mps 731 mmHg 37%
    13:00 +40°C° 0 mm 4 mps 731 mmHg 35%
    14:00 +39°C° 0 mm 3 mps 730 mmHg 34%
    15:00 +39°C° 0 mm 2 mps 729 mmHg 32%
    16:00 +38°C° 0.1 mm 2 mps 730 mmHg 35%
    17:00 +37°C° 0.1 mm 2 mps 730 mmHg 38%
    18:00 +36°C° 0.1 mm 2 mps 730 mmHg 40%
    19:00 +36°C° 0.1 mm 2 mps 731 mmHg 42%
    20:00 +35°C° 0.1 mm 2 mps 731 mmHg 45%
    21:00 +34°C° 0.1 mm 2 mps 731 mmHg 47%
    22:00 +34°C° 0 mm 2 mps 731 mmHg 48%
    23:00 +34°C° 0 mm 3 mps 731 mmHg 48%

    28 October, Sunday

    Time Temperature Precipitation Wind Pressure Humidity
    00:00 +34°C° 0 mm 3 mps 731 mmHg 49%
    01:00 +33°C° 0 mm 3 mps 731 mmHg 51%
    02:00 +33°C° 0 mm 3 mps 730 mmHg 52%
    03:00 +31°C° 0 mm 3 mps 730 mmHg 54%
    04:00 +30°C° 0 mm 3 mps 731 mmHg 57%
    05:00 +30°C° 0 mm 3 mps 731 mmHg 59%
    06:00 +29°C° 0 mm 3 mps 732 mmHg 62%
    07:00 +31°C° 0.3 mm 3 mps 732 mmHg 58%
    08:00 +33°C° 0.3 mm 3 mps 733 mmHg 54%
    09:00 +35°C° 0.3 mm 4 mps 733 mmHg 50%
    10:00 +36°C° 0 mm 3 mps 733 mmHg 45%
    11:00 +37°C° 0 mm 3 mps 732 mmHg 40%
    12:00 +39°C° 0 mm 3 mps 732 mmHg 36%
    13:00 +39°C° 0 mm 2 mps 731 mmHg 33%
    14:00 +40°C° 0 mm 1 mps 730 mmHg 31%
    15:00 +37°C° 0 mm 0 mps 730 mmHg 28%
    16:00 +36°C° 0 mm 0 mps 730 mmHg 30%
    17:00 +37°C° 0 mm 1 mps 730 mmHg 32%
    18:00 +37°C° 0 mm 1 mps 730 mmHg 34%
    19:00 +36°C° 0.1 mm 1 mps 731 mmHg 37%
    20:00 +36°C° 0.1 mm 2 mps 731 mmHg 39%
    21:00 +35°C° 0.1 mm 2 mps 731 mmHg 42%
    22:00 +34°C° 0.9 mm 3 mps 731 mmHg 47%
    23:00 +33°C° 0.9 mm 3 mps 732 mmHg 52%
    Show more